Погода в Кулудуффуши

Мальдивы     6°37′25″N   73°04′19″E
темп.,
°C
ветер,
м/с
пор.,
м/с
влажн.,
%
обл.,
%
осадки,
мм/ч
давл.,
гПа
погр.,
м
1 августа, вс
вс123:00+28зсз667779 1.9 1014711
02:00+27зсз677954 2.1 1011531
05:00+28зсз677665 4.5 1011845
08:00+28зсз567526 1.4 1013853
11:00+28зсз55768 3.8 1013453
14:00+28зсз567294 1.0 1010655
17:00+28зсз6671100 1.0 1010748
20:00+28зсз5671100 1.8 1012802
2 августа, пн
пн223:00+28зсз5674100 5.2 1012494
02:00+28зсз6772100 1.1 1010666
05:00+28зсз5670100 1.2 1010820
08:00+28з5673100 0.6 1013682
11:00+28з6673100 2.9 1013701
14:00+28з7773100 0.8 1011786
17:00+28з6773100 3.3 1011606
20:00+28з6770100 1.8 1013659
3 августа, вт
вт323:00+28з6773100 1.8 1013908
02:00+28з677495 0.4 1012904
05:00+28з667714 0.8 1012799
08:00+28з567796 0.1 1014848
11:00+28зсз5676100 0.5 1014842
14:00+28зсз567885 1.8 1012527
17:00+28з5575100 3.1 1012714
20:00+29з457189 0.2 1014988
4 августа, ср
ср423:00+29з4572100 0.2 1014874
02:00+28зсз667650 0.6 1013823
05:00+27зсз6779100 1.6 1013646
08:00+28зсз677585 1.4 1015868
11:00+28зсз6774100 1.6 1015977
14:00+29зсз7872100 0.0 10131086
17:00+29зсз6772100 0.0 1013995
20:00+29з6774100 0.0 10141010
5 августа, чт
чт523:00+29зсз567397 0.0 1014994
02:00+28зсз7777100 0.3 1012815
05:00+28зсз7877100 0.8 1012915
08:00+28зсз6776100 0.6 1014915
11:00+28з7877100 1.1 1013870
14:00+28з7876100 0.2 1011961
17:00+28з7876100 0.3 1011971
20:00+29з787662 0.0 1012957